| time (UTC) | temp C | wind direction | speed KPH | gust KPH | rain 1hr cm | rain 24hr cm | rain mn cm | humidity % | barometer mb |
| 20260506200519 | 19 | 270 | 8.0 | 20.9 | 0.00 | 0.10 | 0.10 | 100 | 1005.0 |
| 20260506195519 | 19 | 225 | 4.8 | 11.3 | 0.00 | 0.10 | 0.10 | 100 | 1004.9 |
| 20260506194520 | 19 | 270 | 6.4 | 14.5 | 0.00 | 0.10 | 0.10 | 100 | 1005.0 |
| 20260506193731 | 18 | 248 | 6.4 | 14.5 | 0.00 | 0.10 | 0.10 | 100 | 1005.0 |
| 20260506192519 | 18 | 270 | 4.8 | 12.9 | 0.00 | 0.10 | 0.10 | 100 | 1005.2 |
| 20260506191519 | 18 | 203 | 3.2 | 11.3 | 0.00 | 0.10 | 0.10 | 100 | 1005.3 |
| 20260506190520 | 18 | 225 | 3.2 | 8.0 | 0.00 | 0.10 | 0.10 | 100 | 1005.3 |
| 20260506185519 | 18 | 225 | 4.8 | 9.7 | 0.00 | 0.10 | 0.10 | 100 | 1005.3 |
| 20260506184520 | 17 | 225 | 6.4 | 14.5 | 0.00 | 0.10 | 0.10 | 100 | 1005.3 |
| 20260506183520 | 17 | 180 | 4.8 | 9.7 | 0.03 | 0.10 | 0.10 | 100 | 1005.4 |
| 20260506182519 | 17 | 158 | 6.4 | 11.3 | 0.03 | 0.10 | 0.10 | 100 | 1005.5 |
| 20260506181519 | 17 | 203 | 4.8 | 11.3 | 0.03 | 0.10 | 0.10 | 100 | 1005.5 |
| 20260506180520 | 17 | 203 | 8.0 | 17.7 | 0.03 | 0.10 | 0.10 | 100 | 1005.4 |
| 20260506175519 | 17 | 225 | 6.4 | 14.5 | 0.03 | 0.10 | 0.10 | 100 | 1005.5 |
| 20260506174519 | 16 | 248 | 6.4 | 12.9 | 0.03 | 0.10 | 0.10 | 100 | 1005.5 |
| 20260506173520 | 16 | 203 | 3.2 | 8.0 | 0.00 | 0.08 | 0.08 | 100 | 1005.4 |
| 20260506172519 | 16 | 203 | 1.6 | 8.0 | 0.00 | 0.08 | 0.08 | 100 | 1005.5 |
| 20260506171519 | 16 | 203 | 3.2 | 8.0 | 0.00 | 0.08 | 0.08 | 100 | 1005.6 |
| 20260506170519 | 16 | 203 | 3.2 | 8.0 | 0.00 | 0.08 | 0.08 | 100 | 1005.6 |
| 20260506165520 | 16 | 203 | 3.2 | 8.0 | 0.00 | 0.08 | 0.08 | 100 | 1005.6 |
| 20260506164520 | 16 | 203 | 3.2 | 8.0 | 0.00 | 0.08 | 0.08 | 100 | 1005.6 |
| 20260506163519 | 16 | 203 | 3.2 | 8.0 | 0.03 | 0.08 | 0.08 | 100 | 1005.6 |
| 20260506162520 | 15 | 203 | 6.4 | 11.3 | 0.03 | 0.08 | 0.08 | 100 | 1005.6 |
| 20260506161520 | 15 | 203 | 6.4 | 11.3 | 0.03 | 0.08 | 0.08 | 100 | 1005.7 |
| 20260506160520 | 15 | 203 | 6.4 | 11.3 | 0.03 | 0.08 | 0.08 | 100 | 1005.7 |
| 20260506155520 | 15 | 225 | 6.4 | 11.3 | 0.03 | 0.08 | 0.08 | 100 | 1005.6 |
| 20260506154946 | 15 | 203 | 3.2 | 11.3 | 0.03 | 0.08 | 0.08 | 100 | 1005.6 |
| 20260506153520 | 15 | 203 | 6.4 | 11.3 | 0.00 | 0.05 | 0.05 | 100 | 1005.5 |
| 20260506152519 | 15 | 203 | 6.4 | 12.9 | 0.00 | 0.05 | 0.05 | 100 | 1005.5 |
| 20260506151532 | 15 | 203 | 8.0 | 16.1 | 0.03 | 0.05 | 0.05 | 100 | 1005.4 |
| 20260506150519 | 15 | 180 | 8.0 | 17.7 | 0.03 | 0.05 | 0.05 | 100 | 1005.2 |
| 20260506145520 | 15 | 203 | 6.4 | 11.3 | 0.03 | 0.05 | 0.05 | 100 | 1005.4 |
| 20260506144519 | 15 | 180 | 6.4 | 11.3 | 0.03 | 0.05 | 0.05 | 100 | 1005.6 |
| 20260506143519 | 15 | 203 | 8.0 | 17.7 | 0.03 | 0.05 | 0.05 | 100 | 1005.7 |
| 20260506142520 | 15 | 135 | 3.2 | 8.0 | 0.03 | 0.05 | 0.05 | 100 | 1005.9 |
| 20260506141520 | 15 | 180 | 6.4 | 19.3 | 0.00 | 0.03 | 0.03 | 100 | 1006.1 |
| 20260506140520 | 16 | 180 | 8.0 | 22.5 | 0.00 | 0.03 | 0.03 | 100 | 1005.9 |
| 20260506135520 | 16 | 203 | 6.4 | 16.1 | 0.03 | 0.03 | 0.03 | 100 | 1005.8 |
| 20260506134729 | 16 | 180 | 6.4 | 12.9 | 0.03 | 0.03 | 0.03 | 100 | 1005.6 |
| 20260506133519 | 16 | 158 | 4.8 | 9.7 | 0.03 | 0.03 | 0.03 | 100 | 1005.6 |
| 20260506132520 | 16 | 203 | 6.4 | 11.3 | 0.03 | 0.03 | 0.03 | 100 | 1005.7 |
| 20260506131520 | 16 | 203 | 3.2 | 9.7 | 0.03 | 0.03 | 0.03 | 100 | 1005.7 |
| 20260506130520 | 16 | 203 | 3.2 | 8.0 | 0.03 | 0.03 | 0.03 | 100 | 1006.0 |
| 20260506125519 | 16 | 0.0 | 3.2 | 0.00 | 0.00 | 0.00 | 100 | 1006.1 | |
| 20260506124520 | 16 | 0.0 | 1.6 | 0.00 | 0.00 | 0.00 | 100 | 1005.9 | |
| 20260506123520 | 16 | 0.0 | 3.2 | 0.00 | 0.00 | 0.00 | 100 | 1006.1 | |
| 20260506122520 | 16 | 0.0 | 0.0 | 0.00 | 0.00 | 0.00 | 100 | 1006.2 | |
| 20260506121520 | 16 | 0.0 | 3.2 | 0.00 | 0.00 | 0.00 | 100 | 1006.3 | |
| 20260506120520 | 16 | 0.0 | 0.0 | 0.00 | 0.00 | 0.00 | 100 | 1006.5 | |
| 20260506115520 | 16 | 203 | 4.8 | 9.7 | 0.00 | 0.00 | 0.00 | 2 | 1006.5 |
| 20260506114520 | 17 | 203 | 4.8 | 11.3 | 0.00 | 0.00 | 0.00 | 22 | 1006.4 |
| 20260506113520 | 17 | 203 | 4.8 | 11.3 | 0.00 | 0.00 | 0.00 | 37 | 1006.3 |
| 20260506112519 | 17 | 203 | 8.0 | 14.5 | 0.00 | 0.00 | 0.00 | 49 | 1006.1 |
| 20260506111520 | 18 | 203 | 9.7 | 16.1 | 0.00 | 0.00 | 0.00 | 57 | 1005.9 |
| 20260506110520 | 18 | 225 | 8.0 | 16.1 | 0.00 | 0.00 | 0.00 | 60 | 1005.8 |
| 20260506105520 | 18 | 180 | 9.7 | 20.9 | 0.00 | 0.00 | 0.00 | 61 | 1005.5 |
| 20260506104520 | 18 | 203 | 8.0 | 19.3 | 0.00 | 0.00 | 0.00 | 62 | 1005.6 |
| 20260506103520 | 18 | 180 | 9.7 | 20.9 | 0.00 | 0.00 | 0.00 | 62 | 1005.4 |
| 20260506102520 | 18 | 225 | 8.0 | 20.9 | 0.00 | 0.00 | 0.00 | 62 | 1005.4 |
| 20260506101520 | 18 | 180 | 8.0 | 16.1 | 0.00 | 0.00 | 0.00 | 62 | 1005.3 |
| 20260506100520 | 18 | 158 | 8.0 | 17.7 | 0.00 | 0.00 | 0.00 | 61 | 1005.0 |
| 20260506095520 | 18 | 180 | 8.0 | 16.1 | 0.00 | 0.00 | 0.00 | 61 | 1005.2 |
| 20260506094520 | 19 | 180 | 11.3 | 20.9 | 0.00 | 0.00 | 0.00 | 61 | 1005.2 |
| 20260506093520 | 19 | 180 | 11.3 | 20.9 | 0.00 | 0.00 | 0.00 | 61 | 1005.0 |
| 20260506092520 | 19 | 180 | 11.3 | 22.5 | 0.00 | 0.00 | 0.00 | 61 | 1005.0 |
| 20260506091734 | 19 | 203 | 11.3 | 20.9 | 0.00 | 0.00 | 0.00 | 60 | 1005.2 |
| 20260506090520 | 19 | 203 | 12.9 | 29.0 | 0.00 | 0.00 | 0.00 | 60 | 1005.4 |
| 20260506085520 | 19 | 180 | 12.9 | 25.7 | 0.00 | 0.00 | 0.00 | 60 | 1005.5 |
| 20260506084520 | 19 | 180 | 12.9 | 27.4 | 0.00 | 0.00 | 0.00 | 60 | 1005.6 |
| 20260506083733 | 19 | 203 | 11.3 | 24.1 | 0.00 | 0.00 | 0.00 | 59 | 1005.6 |
| 20260506082520 | 20 | 180 | 12.9 | 27.4 | 0.00 | 0.00 | 0.00 | 59 | 1005.5 |
| 20260506081520 | 20 | 180 | 12.9 | 27.4 | 0.00 | 0.00 | 0.00 | 58 | 1005.4 |
| 20260506080521 | 20 | 180 | 9.7 | 22.5 | 0.00 | 0.00 | 0.00 | 58 | 1005.6 |
| 20260506073520 | 20 | 180 | 9.7 | 17.7 | 0.00 | 0.00 | 0.00 | 56 | 1005.7 |
| 20260506072734 | 20 | 203 | 8.0 | 16.1 | 0.00 | 0.00 | 0.00 | 55 | 1005.9 |
| 20260506071520 | 19 | 203 | 8.0 | 12.9 | 0.00 | 0.00 | 0.00 | 55 | 1005.9 |
| 20260506070520 | 20 | 203 | 6.4 | 14.5 | 0.00 | 0.00 | 0.00 | 54 | 1005.9 |
| 20260506061520 | 20 | 203 | 6.4 | 14.5 | 0.00 | 0.00 | 0.00 | 48 | 1006.6 |
| 20260506060732 | 20 | 203 | 6.4 | 14.5 | 0.00 | 0.00 | 0.00 | 48 | 1006.6 |
| 20260506050520 | 20 | 180 | 4.8 | 11.3 | 0.00 | 0.00 | 0.00 | 45 | 1007.1 |
| 20260506044521 | 21 | 203 | 8.0 | 14.5 | 0.00 | 0.00 | 0.00 | 44 | 1007.1 |
| 20260506043520 | 21 | 180 | 9.7 | 16.1 | 0.00 | 0.00 | 0.00 | 44 | 1007.2 |
| 20260506042731 | 21 | 203 | 9.7 | 17.7 | 0.00 | 0.00 | 0.00 | 45 | 1007.2 |
| 20260506041732 | 21 | 203 | 12.9 | 24.1 | 0.00 | 0.00 | 0.00 | 44 | 1007.1 |
| 20260506040733 | 21 | 203 | 11.3 | 24.1 | 0.00 | 0.00 | 0.00 | 44 | 1007.0 |
| 20260506035519 | 21 | 180 | 11.3 | 20.9 | 0.00 | 0.00 | 0.00 | 43 | 1007.0 |
| 20260506034520 | 21 | 203 | 9.7 | 19.3 | 0.00 | 0.00 | 0.00 | 43 | 1007.1 |
| 20260506033519 | 21 | 203 | 8.0 | 17.7 | 0.00 | 0.00 | 0.00 | 43 | 1007.0 |
| 20260506032520 | 21 | 203 | 8.0 | 14.5 | 0.00 | 0.00 | 0.00 | 44 | 1007.0 |
| 20260506031519 | 21 | 180 | 8.0 | 16.1 | 0.00 | 0.00 | 0.00 | 44 | 1007.0 |
| 20260506030519 | 21 | 203 | 8.0 | 16.1 | 0.00 | 0.00 | 0.00 | 45 | 1007.0 |
| 20260506025519 | 20 | 180 | 4.8 | 11.3 | 0.00 | 0.00 | 0.00 | 47 | 1006.9 |
| 20260506024519 | 20 | 203 | 1.6 | 4.8 | 0.00 | 0.00 | 0.00 | 50 | 1007.0 |
| 20260506023520 | 19 | 203 | 1.6 | 6.4 | 0.00 | 0.00 | 0.00 | 52 | 1007.1 |
| 20260506022520 | 19 | 0.0 | 0.0 | 0.00 | 0.00 | 0.00 | 51 | 1007.0 | |
| 20260506021519 | 19 | 0.0 | 0.0 | 0.00 | 0.00 | 0.00 | 51 | 1007.0 | |
| 20260506020520 | 20 | 0.0 | 0.0 | 0.00 | 0.00 | 0.00 | 50 | 1007.0 | |
| 20260506015520 | 20 | 0.0 | 0.0 | 0.00 | 0.00 | 0.00 | 49 | 1006.9 | |
| 20260506014520 | 20 | 0.0 | 0.0 | 0.00 | 0.00 | 0.00 | 48 | 1006.8 | |
| 20260506013732 | 21 | 0.0 | 0.0 | 0.00 | 0.00 | 0.00 | 47 | 1006.8 | |
| 20260506013159 | 21 | 0.0 | 3.2 | 0.00 | 0.00 | 0.00 | 45 | 1006.7 | |
| 20260506011520 | 22 | 203 | 1.6 | 4.8 | 0.00 | 0.00 | 0.00 | 43 | 1006.5 |
| 20260506010520 | 22 | 0.0 | 3.2 | 0.00 | 0.00 | 0.00 | 42 | 1006.4 | |
| 20260506005520 | 23 | 203 | 1.6 | 4.8 | 0.00 | 0.00 | 0.00 | 41 | 1006.4 |
| 20260506004520 | 23 | 203 | 3.2 | 6.4 | 0.00 | 0.00 | 0.00 | 40 | 1006.4 |
| 20260506003520 | 23 | 203 | 3.2 | 4.8 | 0.00 | 0.00 | 0.00 | 40 | 1006.2 |
| 20260506002520 | 23 | 203 | 3.2 | 8.0 | 0.00 | 0.00 | 0.00 | 39 | 1006.1 |
| 20260506001520 | 24 | 203 | 8.0 | 16.1 | 0.00 | 0.00 | 0.00 | 38 | 1006.1 |
| 20260506000520 | 24 | 203 | 8.0 | 19.3 | 0.00 | 0.00 | 0.00 | 38 | 1005.8 |
| 20260505235519 | 24 | 203 | 6.4 | 12.9 | 0.00 | 0.00 | 0.00 | 39 | 1005.7 |
| 20260505234520 | 24 | 225 | 6.4 | 14.5 | 0.00 | 0.00 | 0.00 | 38 | 1005.8 |
| 20260505233520 | 25 | 180 | 8.0 | 11.3 | 0.00 | 0.00 | 0.00 | 39 | 1005.8 |
| 20260505232520 | 25 | 203 | 9.7 | 19.3 | 0.00 | 0.00 | 0.00 | 39 | 1005.7 |
| 20260505231520 | 25 | 225 | 11.3 | 19.3 | 0.00 | 0.00 | 0.00 | 39 | 1005.7 |
| 20260505230520 | 25 | 180 | 6.4 | 22.5 | 0.00 | 0.00 | 0.00 | 41 | 1005.5 |
| 20260505225520 | 25 | 180 | 9.7 | 24.1 | 0.00 | 0.00 | 0.00 | 39 | 1005.4 |
| 20260505224520 | 26 | 158 | 11.3 | 17.7 | 0.00 | 0.00 | 0.00 | 39 | 1005.3 |
| 20260505223520 | 26 | 203 | 11.3 | 24.1 | 0.00 | 0.00 | 0.00 | 39 | 1005.3 |
| 20260505222520 | 26 | 180 | 11.3 | 22.5 | 0.00 | 0.00 | 0.00 | 39 | 1005.1 |
| 20260505221520 | 26 | 203 | 11.3 | 25.7 | 0.00 | 0.00 | 0.00 | 38 | 1005.2 |
| 20260505220520 | 26 | 180 | 11.3 | 19.3 | 0.00 | 0.00 | 0.00 | 38 | 1005.3 |
| 20260505215519 | 27 | 225 | 8.0 | 19.3 | 0.00 | 0.00 | 0.00 | 36 | 1005.3 |
| 20260505214734 | 27 | 158 | 9.7 | 17.7 | 0.00 | 0.00 | 0.00 | 40 | 1005.4 |
| 20260505213519 | 26 | 158 | 11.3 | 24.1 | 0.00 | 0.00 | 0.00 | 38 | 1005.2 |
| 20260505212520 | 26 | 180 | 12.9 | 32.2 | 0.00 | 0.00 | 0.00 | 38 | 1005.2 |
| 20260505211520 | 27 | 180 | 9.7 | 19.3 | 0.00 | 0.00 | 0.00 | 36 | 1005.2 |
| 20260505210520 | 27 | 225 | 12.9 | 24.1 | 0.00 | 0.00 | 0.00 | 34 | 1005.2 |
| 20260505205520 | 27 | 203 | 11.3 | 27.4 | 0.00 | 0.00 | 0.00 | 34 | 1005.2 |
| 20260505204520 | 27 | 225 | 11.3 | 20.9 | 0.00 | 0.00 | 0.00 | 34 | 1005.1 |
| 20260505203520 | 27 | 225 | 11.3 | 24.1 | 0.00 | 0.00 | 0.00 | 35 | 1005.2 |
| 20260505202520 | 27 | 180 | 11.3 | 24.1 | 0.00 | 0.00 | 0.00 | 34 | 1005.3 |
| 20260505201520 | 27 | 225 | 11.3 | 25.7 | 0.00 | 0.00 | 0.00 | 34 | 1005.4 |